[[{"header":{"parameterUnit":"m.s-1","parameterCategory":1,"la1":30.2991,"la2":30.254,"lo1":-89.0895,"lo2":-89.0444,"dy":0.0017,"dx":0.0017,"nx":28,"ny":28,"refTime":"2024-06-13T03:00:00:Z","depth":0,"parameterNumber":2,"parameterNumberName":"U-component_of_WINDS"},"data":[0,0,0,0,0,0,0,0,0,0,0,0,0,0,0,0,0,0,0,0,0,0,0,0,0,0,0,0,0,0,0,0,0,0,0,0,0,0,0,0,0,0,0,0,0,0,0,0,0,0,0,0,0,0,0,0,0,0,-1.3922,-1.3923,0,-1.3976,-1.3977,-1.3978,-1.3965,-1.3964,-1.3963,-1.3962,-1.4016,-1.4019,-1.4021,0,0,0,0,0,0,0,0,0,0,0,0,0,-1.3807,-1.3809,-1.3922,-1.3923,-1.3924,-1.3976,-1.3977,-1.3978,-1.3965,-1.3964,-1.3963,-1.3962,-1.4015,-1.4018,-1.4021,0,0,0,0,0,0,0,0,0,0,0,0,0,-1.3858,-1.381,-1.3922,-1.3924,-1.3924,-1.3976,-1.3977,-1.3978,-1.3965,-1.3964,-1.3962,-1.3961,-1.4014,-1.4018,-1.4022,-1.4075,0,0,-1.4033,-1.4034,0,0,0,0,0,0,0,0,-1.3855,-1.3863,-1.3923,-1.3924,-1.3925,-1.3962,-1.3956,-1.401,-1.3966,-1.395,-1.3962,-1.396,-1.3999,-1.4004,-1.4018,-1.4077,-1.4079,-1.4033,-1.4035,-1.4037,-1.4038,0,0,0,0,0,0,0,-1.3852,-1.386,-1.3944,-1.3924,-1.3925,-1.3921,-1.3927,-1.3966,-1.3983,-1.3951,-1.395,-1.3957,-1.4,-1.4014,-1.4019,-1.408,-1.4033,-1.4036,-1.4038,-1.404,-1.4186,-1.4187,0,0,0,0,0,0,-1.3848,-1.3857,-1.3942,-1.3945,-1.3886,-1.3925,-1.3931,-1.3952,-1.3982,-1.3985,-1.3958,-1.3956,-1.4009,-1.4015,-1.4021,-1.4085,-1.4037,-1.404,-1.4042,-1.4184,-1.4186,-1.4188,0,0,0,0,0,0,-1.3845,-1.3855,-1.394,-1.3901,-1.3912,-1.3928,-1.3952,-1.3954,-1.3968,-1.3988,-1.399,-1.397,-1.4008,-1.4016,-1.4061,-1.4086,-1.4042,-1.4045,-1.4182,-1.4185,-1.4187,-1.4213,0,0,0,0,0,0,-1.3842,-1.3855,-1.3875,-1.3902,-1.3914,-1.398,-1.3953,-1.3956,-1.3975,-1.3973,-1.4,-1.4003,-1.4007,-1.4056,-1.4065,-1.409,-1.4048,-1.418,-1.4183,-1.4186,-1.421,-1.4216,-1.4221,0,0,0,0,0,-1.3838,-1.388,-1.3876,-1.3887,-1.394,-1.3981,-1.3988,-1.3993,-1.3977,-1.3997,-1.401,-1.4002,-1.4082,-1.4061,-1.4071,-1.4098,-1.4178,-1.4182,-1.4186,-1.4207,-1.4215,-1.4221,0,0,0,0,0,0,-1.3856,-1.3884,-1.388,-1.3932,-1.3955,-1.3979,-1.4005,-1.4001,-1.4028,-1.4025,-1.4029,-1.4036,-1.4082,-1.4095,-1.407,-1.415,-1.4128,-1.4134,-1.4141,-1.4148,-1.4154,-1.415,-1.4051,0,0,0,0,0,-1.3866,-1.3898,-1.392,-1.3964,-1.3976,-1.3989,-1.4007,-1.4009,-1.4032,-1.4041,-1.4057,-1.4079,-1.411,-1.413,-1.4159,-1.4212,-1.4217,-1.4235,-1.4241,-1.4246,-1.4251,-1.4279,-1.4287,-1.4201,-1.42,-1.42,0,0,-1.3887,-1.3906,-1.3926,-1.3968,-1.3986,-1.4018,-1.3997,-1.4032,-1.4056,-1.4046,-1.4091,-1.4103,-1.4128,-1.4178,-1.42,-1.4189,-1.4276,-1.425,-1.4254,-1.4257,-1.4284,-1.4292,-1.4299,-1.4203,-1.4203,-1.4202,0,0,-1.3942,-1.396,-1.3998,-1.4017,-1.4044,-1.4052,-1.4061,-1.4087,-1.4095,-1.4139,-1.4133,-1.4161,-1.4213,-1.4231,-1.4248,-1.4309,-1.4303,-1.4319,-1.4348,-1.4376,-1.4383,-1.4389,-1.4411,-1.4418,-1.4324,-1.4324,-1.4324,0,-1.3965,-1.4014,-1.4019,-1.4054,-1.4073,-1.4067,-1.4105,-1.4122,-1.4157,-1.417,-1.4157,-1.4223,-1.4239,-1.4293,-1.4308,-1.4321,-1.4332,-1.4315,-1.4382,-1.4388,-1.4394,-1.4414,-1.4422,-1.4325,-1.4325,-1.4325,-1.4325,0,-1.404,-1.4074,-1.4101,-1.4136,-1.4157,-1.4194,-1.4205,-1.4226,-1.4226,-1.4235,-1.428,-1.43,-1.4333,-1.4346,-1.4346,-1.4399,-1.4392,-1.4381,-1.4358,-1.4403,-1.4423,-1.4431,-1.4328,-1.4327,-1.4327,-1.4326,0,0,-1.4107,-1.4144,-1.4154,-1.4169,-1.4199,-1.4225,-1.4261,-1.4294,-1.4312,-1.4336,-1.4366,-1.4411,-1.4401,-1.4419,-1.4421,-1.4446,-1.4493,-1.4431,-1.4432,-1.4442,-1.4552,-1.456,-1.4569,-1.4489,-1.449,-1.4491,-1.455,0,-1.4164,-1.4229,-1.4235,-1.4293,-1.4324,-1.4318,-1.435,-1.4371,-1.4381,-1.4409,-1.4419,-1.4451,-1.4435,-1.4446,-1.447,-1.4482,-1.4515,-1.4478,-1.4516,-1.4518,-1.451,-1.4579,-1.4588,-1.4642,-1.4557,-1.4559,-1.456,0,-1.4239,-1.4266,-1.4328,-1.4353,-1.4366,-1.4394,-1.4424,-1.4451,-1.4475,-1.448,-1.4501,-1.45,-1.4537,-1.4513,-1.4563,-1.4538,-1.4554,-1.4563,-1.4565,-1.4568,-1.4541,-1.4584,-1.4659,-1.4667,-1.4572,-1.4571,-1.457,0,-1.4282,-1.4333,-1.4377,-1.439,-1.442,-1.4441,-1.4454,-1.4476,-1.4495,-1.4521,-1.4534,-1.4564,-1.458,-1.4603,-1.461,-1.4592,-1.466,-1.4637,-1.4665,-1.4665,-1.4679,-1.4678,-1.4758,-1.4691,-1.4691,-1.469,-1.469,0,-1.4345,-1.4382,-1.4396,-1.4423,-1.4464,-1.447,-1.4511,-1.4524,-1.4544,-1.4572,-1.4569,-1.4596,-1.4603,-1.4631,-1.4637,-1.4677,-1.4685,-1.469,-1.4691,-1.469,-1.4689,-1.47,-1.4696,-1.4693,-1.4692,-1.4692,-1.4691,0,-1.4399,-1.441,-1.4456,-1.4481,-1.4488,-1.4518,-1.4539,-1.4564,-1.4574,-1.461,-1.4619,-1.4634,-1.4666,-1.4675,-1.4715,-1.4718,-1.4766,-1.4764,-1.4758,-1.4758,-1.4785,-1.4782,-1.4874,-1.4886,-1.4812,-1.4812,-1.4813,0,-1.4438,-1.4466,-1.4495,-1.4514,-1.4528,-1.4559,-1.4578,-1.4585,-1.4606,-1.4635,-1.4657,-1.4689,-1.4715,-1.4767,-1.4781,-1.4811,-1.4809,-1.4839,-1.4813,-1.4811,-1.4809,-1.4807,-1.4809,-1.4844,-1.4844,-1.4845,-1.4846,0,-1.4505,-1.4509,-1.4538,-1.4569,-1.4592,-1.4616,-1.464,-1.4655,-1.4665,-1.4688,-1.4722,-1.4742,-1.4782,-1.4814,-1.4844,-1.4858,-1.4853,-1.4854,-1.4862,-1.4861,-1.4856,-1.4858,-1.477,-1.4851,-1.4851,-1.485,-1.485,-1.485,-1.4553,-1.4578,-1.4602,-1.4633,-1.4652,-1.4674,-1.4699,-1.4711,-1.474,-1.4773,-1.4775,-1.4812,-1.4834,-1.4875,-1.4889,-1.4917,-1.4908,-1.492,-1.4923,-1.4926,-1.4927,-1.4852,-1.4923,-1.4923,-1.4923,-1.4923,-1.4923,0,-1.462,-1.4635,-1.4664,-1.4697,-1.4722,-1.4716,-1.4742,-1.4763,-1.4795,-1.4817,-1.4843,-1.4881,-1.4912,-1.4928,-1.4959,-1.4978,-1.4977,-1.4986,-1.4984,-1.4987,-1.4934,-1.4924,-1.4987,-1.4986,-1.4986,-1.4986,-1.4986,-1.4986,-1.4657,-1.47,-1.4707,-1.4758,-1.4772,-1.4808,-1.4823,-1.4843,-1.486,-1.4904,-1.4929,-1.494,-1.496,-1.4992,-1.502,-1.5024,-1.5035,-1.5045,-1.5048,-1.4998,-1.4991,-1.4985,-1.4975,-1.5047,-1.5047,-1.5098,-1.5099,-1.5099]},{"header":{"parameterUnit":"m.s-1","parameterCategory":1,"la1":30.2991,"la2":30.254,"lo1":-89.0895,"lo2":-89.0444,"dy":0.0017,"dx":0.0017,"nx":28,"ny":28,"refTime":"2024-06-13T03:00:00:Z","depth":0,"parameterNumber":3,"parameterNumberName":"V-component_of_WINDS"},"data":[0,0,0,0,0,0,0,0,0,0,0,0,0,0,0,0,0,0,0,0,0,0,0,0,0,0,0,0,0,0,0,0,0,0,0,0,0,0,0,0,0,0,0,0,0,0,0,0,0,0,0,0,0,0,0,0,0,0,-3.0434,-3.0435,0,-3.0508,-3.0509,-3.051,-3.0474,-3.0472,-3.047,-3.0468,-3.0541,-3.0544,-3.0548,0,0,0,0,0,0,0,0,0,0,0,0,0,-3.0258,-3.0261,-3.0434,-3.0435,-3.0436,-3.0508,-3.0509,-3.051,-3.0474,-3.0472,-3.0469,-3.0467,-3.054,-3.0544,-3.0548,0,0,0,0,0,0,0,0,0,0,0,0,0,-3.0333,-3.0262,-3.0434,-3.0427,-3.0427,-3.0508,-3.0509,-3.051,-3.0475,-3.0472,-3.0469,-3.0466,-3.0538,-3.0543,-3.0549,-3.064,0,0,-3.0566,-3.0568,0,0,0,0,0,0,0,0,-3.0329,-3.034,-3.0427,-3.0427,-3.0427,-3.0479,-3.0473,-3.0554,-3.0475,-3.0456,-3.0468,-3.0465,-3.0522,-3.0529,-3.0549,-3.0643,-3.0647,-3.0566,-3.057,-3.0572,-3.0574,0,0,0,0,0,0,0,-3.0324,-3.0336,-3.0463,-3.0428,-3.0428,-3.0418,-3.0426,-3.0488,-3.0504,-3.0458,-3.0455,-3.0465,-3.0522,-3.0544,-3.055,-3.0648,-3.0566,-3.0571,-3.0575,-3.0577,-3.0821,-3.0824,0,0,0,0,0,0,-3.0319,-3.0332,-3.0461,-3.0465,-3.037,-3.0424,-3.0432,-3.0465,-3.0503,-3.0507,-3.0467,-3.0463,-3.0536,-3.0544,-3.0553,-3.0663,-3.0572,-3.0577,-3.058,-3.0818,-3.0821,-3.0825,0,0,0,0,0,0,-3.0316,-3.0331,-3.0458,-3.0398,-3.0413,-3.043,-3.0467,-3.0468,-3.049,-3.0511,-3.0513,-3.0487,-3.0534,-3.0545,-3.0619,-3.0664,-3.058,-3.0585,-3.0814,-3.0819,-3.0823,-3.0882,0,0,0,0,0,0,-3.0311,-3.033,-3.0366,-3.0399,-3.0417,-3.0524,-3.047,-3.0472,-3.05,-3.0495,-3.053,-3.0533,-3.0532,-3.0611,-3.0624,-3.0671,-3.0589,-3.081,-3.0816,-3.0822,-3.0877,-3.0889,-3.0899,0,0,0,0,0,-3.0304,-3.0379,-3.0368,-3.0383,-3.0462,-3.0527,-3.0536,-3.0536,-3.0504,-3.0539,-3.0553,-3.0531,-3.0657,-3.0619,-3.0634,-3.0682,-3.0807,-3.0814,-3.0821,-3.0872,-3.0886,-3.0899,0,0,0,0,0,0,-3.0349,-3.0383,-3.0371,-3.0458,-3.049,-3.052,-3.0565,-3.0551,-3.0592,-3.0585,-3.0581,-3.0589,-3.0666,-3.0681,-3.0638,-3.0772,-3.0727,-3.0737,-3.076,-3.0774,-3.0785,-3.078,-3.0594,0,0,0,0,0,-3.0369,-3.042,-3.0446,-3.052,-3.0537,-3.0549,-3.0577,-3.0573,-3.0605,-3.0618,-3.0637,-3.0668,-3.0714,-3.0745,-3.0789,-3.0878,-3.0885,-3.0919,-3.093,-3.0939,-3.0948,-3.0997,-3.1013,-3.0848,-3.0848,-3.0848,0,0,-3.041,-3.0435,-3.0467,-3.053,-3.0554,-3.0606,-3.056,-3.0617,-3.0655,-3.0626,-3.0698,-3.0713,-3.0747,-3.0829,-3.0866,-3.0844,-3.0995,-3.0948,-3.0955,-3.096,-3.1006,-3.1022,-3.1035,-3.0853,-3.0852,-3.0851,0,0,-3.0513,-3.0537,-3.0602,-3.0628,-3.0665,-3.0672,-3.0688,-3.072,-3.073,-3.0801,-3.0781,-3.0826,-3.0906,-3.0931,-3.0955,-3.1067,-3.1049,-3.1081,-3.114,-3.1188,-3.1201,-3.1212,-3.1253,-3.1267,-3.109,-3.109,-3.109,0,-3.056,-3.0639,-3.0637,-3.0696,-3.0724,-3.0701,-3.0767,-3.0791,-3.084,-3.086,-3.0834,-3.0935,-3.0956,-3.1044,-3.1072,-3.1091,-3.1108,-3.1078,-3.1199,-3.1211,-3.1221,-3.126,-3.1275,-3.1094,-3.1094,-3.1093,-3.1093,0,-3.0695,-3.0749,-3.0797,-3.0847,-3.088,-3.0942,-3.0948,-3.0982,-3.0976,-3.0985,-3.1058,-3.1083,-3.1132,-3.1152,-3.1146,-3.124,-3.1225,-3.1199,-3.1154,-3.1241,-3.1277,-3.1292,-3.1099,-3.1098,-3.1097,-3.1096,0,0,-3.0828,-3.0876,-3.0894,-3.0917,-3.0956,-3.0998,-3.1058,-3.1107,-3.1136,-3.117,-3.1221,-3.1289,-3.1266,-3.1292,-3.1288,-3.133,-3.1418,-3.1299,-3.13,-3.1321,-3.1523,-3.1543,-3.156,-3.1406,-3.1409,-3.1411,-3.1521,0,-3.0934,-3.1042,-3.1042,-3.114,-3.119,-3.117,-3.1222,-3.1251,-3.1262,-3.1305,-3.1315,-3.1365,-3.133,-3.1346,-3.1386,-3.1399,-3.1459,-3.1391,-3.1453,-3.1455,-3.1446,-3.1579,-3.16,-3.1702,-3.1535,-3.1537,-3.1539,0,-3.1073,-3.1114,-3.1218,-3.125,-3.1271,-3.1319,-3.1363,-3.1405,-3.1438,-3.1442,-3.1472,-3.1462,-3.1522,-3.1474,-3.1557,-3.1511,-3.1536,-3.1546,-3.155,-3.1556,-3.1503,-3.159,-3.1735,-3.1751,-3.1561,-3.1559,-3.1558,0,-3.1161,-3.1241,-3.1314,-3.1334,-3.1373,-3.1407,-3.1425,-3.1455,-3.1484,-3.1523,-3.1542,-3.1586,-3.1611,-3.1645,-3.1647,-3.1612,-3.1731,-3.1683,-3.1736,-3.1736,-3.1763,-3.1761,-3.1915,-3.1777,-3.1777,-3.1777,-3.1777,0,-3.128,-3.1345,-3.1354,-3.1399,-3.147,-3.1469,-3.154,-3.1554,-3.1581,-3.1628,-3.1611,-3.1655,-3.1654,-3.1699,-3.17,-3.1769,-3.178,-3.1785,-3.1785,-3.1787,-3.1786,-3.1804,-3.1797,-3.1781,-3.178,-3.1779,-3.1779,0,-3.1391,-3.14,-3.1478,-3.1509,-3.1519,-3.157,-3.1596,-3.1639,-3.1647,-3.1706,-3.172,-3.1733,-3.1785,-3.179,-3.1849,-3.185,-3.1933,-3.1925,-3.1923,-3.1922,-3.1975,-3.197,-3.2146,-3.2169,-3.2016,-3.2017,-3.2018,0,-3.1467,-3.1516,-3.1553,-3.1584,-3.1604,-3.1654,-3.1684,-3.1684,-3.1716,-3.1757,-3.1794,-3.1844,-3.1885,-3.1967,-3.1982,-3.2027,-3.202,-3.2078,-3.2026,-3.2027,-3.2022,-3.2019,-3.2024,-3.2088,-3.209,-3.2092,-3.2093,0,-3.1601,-3.1603,-3.1648,-3.1695,-3.1732,-3.1769,-3.1803,-3.1828,-3.1833,-3.1869,-3.1922,-3.1954,-3.2014,-3.2064,-3.2109,-3.2125,-3.211,-3.2109,-3.2124,-3.2127,-3.2124,-3.2127,-3.1951,-3.2105,-3.2104,-3.2103,-3.2102,-3.2102,-3.1698,-3.1741,-3.1774,-3.1825,-3.185,-3.1883,-3.1924,-3.1939,-3.1983,-3.2034,-3.2031,-3.209,-3.212,-3.2178,-3.2199,-3.2244,-3.2224,-3.2246,-3.2251,-3.2257,-3.2263,-3.2116,-3.2252,-3.2251,-3.2251,-3.2251,-3.225,0,-3.1832,-3.1852,-3.1899,-3.1948,-3.1988,-3.197,-3.2007,-3.2041,-3.2093,-3.2124,-3.2164,-3.2225,-3.2273,-3.2291,-3.2338,-3.2371,-3.2365,-3.2383,-3.2381,-3.2385,-3.2277,-3.226,-3.2387,-3.2387,-3.2387,-3.2387,-3.2387,-3.2387,-3.1907,-3.1979,-3.1985,-3.207,-3.2089,-3.2148,-3.217,-3.22,-3.2224,-3.2294,-3.2334,-3.2346,-3.2371,-3.242,-3.2463,-3.2467,-3.2485,-3.2507,-3.2508,-3.2407,-3.2393,-3.238,-3.2364,-3.2511,-3.2511,-3.2613,-3.2614,-3.2614]}]]